• In Uzbekistan
  • List of Countries
  • For 7 days
  • Water Temperature
  • Satellite Maps
  • Weather Map
  • Weather Widgets
  • user-avatar
    Login

    Hourly Weather Sabha

    Today, 23 February, Saturday

    Time Temperature Precipitation Wind Pressure Humidity
    00:00 +13°C° 0 mm 3 mps 726 mmHg 38%
    01:00 +12°C° 0 mm 3 mps 726 mmHg 41%
    02:00 +12°C° 0 mm 3 mps 726 mmHg 43%
    03:00 +11°C° 0 mm 3 mps 726 mmHg 45%
    04:00 +11°C° 0 mm 3 mps 725 mmHg 47%
    05:00 +10°C° 0 mm 3 mps 725 mmHg 48%
    06:00 +10°C° 0 mm 2 mps 725 mmHg 49%
    07:00 +10°C° 0 mm 2 mps 726 mmHg 52%
    08:00 +12°C° 0 mm 1 mps 726 mmHg 49%
    09:00 +13°C° 0 mm 1 mps 725 mmHg 45%
    10:00 +14°C° 0 mm 1 mps 725 mmHg 41%
    11:00 +15°C° 0 mm 2 mps 725 mmHg 36%
    12:00 +16°C° 0 mm 3 mps 725 mmHg 31%
    13:00 +18°C° 0 mm 4 mps 724 mmHg 24%
    14:00 +19°C° 0 mm 4 mps 723 mmHg 23%
    15:00 +19°C° 0 mm 5 mps 723 mmHg 22%
    16:00 +19°C° 0 mm 6 mps 722 mmHg 22%
    17:00 +17°C° 0 mm 5 mps 722 mmHg 23%
    18:00 +18°C° 0 mm 4 mps 722 mmHg 24%
    19:00 +17°C° 0 mm 3 mps 722 mmHg 25%
    20:00 +17°C° 0 mm 3 mps 722 mmHg 25%
    21:00 +15°C° 0 mm 4 mps 722 mmHg 26%
    22:00 +14°C° 0 mm 4 mps 723 mmHg 26%
    23:00 +14°C° 0 mm 4 mps 723 mmHg 29%

    Tomorrow, 24 February, Sunday

    Time Temperature Precipitation Wind Pressure Humidity
    00:00 +13°C° 0 mm 4 mps 722 mmHg 32%
    01:00 +12°C° 0 mm 4 mps 722 mmHg 35%
    02:00 +12°C° 0 mm 4 mps 722 mmHg 38%
    03:00 +11°C° 0 mm 4 mps 722 mmHg 41%
    04:00 +10°C° 0 mm 4 mps 721 mmHg 45%
    05:00 +10°C° 0 mm 4 mps 722 mmHg 46%
    06:00 +9°C° 0 mm 5 mps 722 mmHg 48%
    07:00 +8°C° 0 mm 5 mps 722 mmHg 50%
    08:00 +9°C° 0 mm 7 mps 722 mmHg 49%
    09:00 +10°C° 0 mm 8 mps 723 mmHg 47%
    10:00 +11°C° 0 mm 9 mps 723 mmHg 46%
    11:00 +11°C° 0 mm 10 mps 723 mmHg 38%
    12:00 +12°C° 0 mm 10 mps 723 mmHg 30%
    13:00 +12°C° 0 mm 11 mps 723 mmHg 22%
    14:00 +12°C° 0 mm 10 mps 723 mmHg 22%
    15:00 +12°C° 0 mm 10 mps 722 mmHg 21%
    16:00 +12°C° 0 mm 10 mps 722 mmHg 21%
    17:00 +12°C° 0 mm 9 mps 722 mmHg 26%
    18:00 +12°C° 0 mm 9 mps 723 mmHg 32%
    19:00 +11°C° 0 mm 8 mps 723 mmHg 37%
    20:00 +11°C° 0 mm 8 mps 724 mmHg 41%
    21:00 +11°C° 0 mm 8 mps 724 mmHg 45%
    22:00 +11°C° 0 mm 9 mps 724 mmHg 49%
    23:00 +10°C° 0 mm 8 mps 725 mmHg 52%

    Day after tomorrow, 25 February, Monday

    Time Temperature Precipitation Wind Pressure Humidity
    00:00 +9°C° 0 mm 7 mps 725 mmHg 55%
    01:00 +9°C° 0 mm 7 mps 725 mmHg 58%
    02:00 +8°C° 0 mm 6 mps 725 mmHg 60%
    03:00 +8°C° 0 mm 6 mps 725 mmHg 63%
    04:00 +7°C° 0 mm 6 mps 725 mmHg 66%
    05:00 +7°C° 0 mm 5 mps 725 mmHg 68%
    06:00 +7°C° 0 mm 4 mps 725 mmHg 70%
    07:00 +6°C° 0 mm 4 mps 725 mmHg 72%
    08:00 +7°C° 0 mm 4 mps 726 mmHg 64%
    09:00 +8°C° 0 mm 4 mps 726 mmHg 56%
    10:00 +11°C° 0 mm 4 mps 726 mmHg 48%
    11:00 +12°C° 0 mm 4 mps 726 mmHg 44%
    12:00 +13°C° 0 mm 4 mps 726 mmHg 40%
    13:00 +14°C° 0 mm 3 mps 725 mmHg 37%
    14:00 +14°C° 0 mm 3 mps 725 mmHg 35%
    15:00 +16°C° 0 mm 3 mps 725 mmHg 33%
    16:00 +17°C° 0 mm 3 mps 724 mmHg 31%
    17:00 +16°C° 0 mm 3 mps 725 mmHg 32%
    18:00 +16°C° 0 mm 3 mps 725 mmHg 33%
    19:00 +16°C° 0 mm 2 mps 725 mmHg 34%
    20:00 +14°C° 0 mm 3 mps 726 mmHg 37%
    21:00 +14°C° 0 mm 4 mps 726 mmHg 41%
    22:00 +13°C° 0 mm 5 mps 727 mmHg 44%
    23:00 +13°C° 0 mm 4 mps 727 mmHg 50%

    26 February, Tuesday

    Time Temperature Precipitation Wind Pressure Humidity
    00:00 +12°C° 0 mm 4 mps 727 mmHg 56%
    01:00 +11°C° 0 mm 3 mps 727 mmHg 62%
    02:00 +10°C° 0 mm 3 mps 726 mmHg 65%
    03:00 +10°C° 0 mm 3 mps 726 mmHg 68%
    04:00 +9°C° 0 mm 3 mps 726 mmHg 71%
    05:00 +9°C° 0 mm 3 mps 727 mmHg 73%
    06:00 +9°C° 0 mm 3 mps 727 mmHg 75%
    07:00 +9°C° 0 mm 3 mps 728 mmHg 77%
    08:00 +10°C° 0 mm 4 mps 728 mmHg 71%
    09:00 +11°C° 0 mm 4 mps 729 mmHg 65%
    10:00 +12°C° 0 mm 5 mps 729 mmHg 59%
    11:00 +13°C° 0 mm 5 mps 729 mmHg 53%
    12:00 +14°C° 0 mm 4 mps 728 mmHg 48%
    13:00 +15°C° 0 mm 4 mps 728 mmHg 42%
    14:00 +15°C° 0 mm 4 mps 728 mmHg 40%
    15:00 +17°C° 0 mm 4 mps 727 mmHg 37%
    16:00 +17°C° 0 mm 4 mps 727 mmHg 35%
    17:00 +17°C° 0 mm 4 mps 727 mmHg 35%
    18:00 +16°C° 0 mm 3 mps 728 mmHg 35%
    19:00 +16°C° 0 mm 3 mps 728 mmHg 35%
    20:00 +14°C° 0 mm 3 mps 729 mmHg 37%
    21:00 +14°C° 0 mm 3 mps 729 mmHg 38%
    22:00 +13°C° 0 mm 3 mps 729 mmHg 40%
    23:00 +13°C° 0 mm 3 mps 729 mmHg 42%

    27 February, Wednesday

    Time Temperature Precipitation Wind Pressure Humidity
    00:00 +12°C° 0 mm 3 mps 729 mmHg 45%
    01:00 +12°C° 0 mm 4 mps 729 mmHg 47%
    02:00 +11°C° 0 mm 4 mps 729 mmHg 50%
    03:00 +11°C° 0 mm 4 mps 729 mmHg 53%
    04:00 +10°C° 0 mm 4 mps 728 mmHg 55%
    05:00 +10°C° 0 mm 4 mps 729 mmHg 58%
    06:00 +8°C° 0 mm 4 mps 729 mmHg 61%
    07:00 +8°C° 0 mm 4 mps 729 mmHg 64%
    08:00 +10°C° 0 mm 4 mps 730 mmHg 59%
    09:00 +12°C° 0 mm 4 mps 730 mmHg 54%
    10:00 +13°C° 0 mm 5 mps 730 mmHg 49%
    11:00 +14°C° 0 mm 4 mps 729 mmHg 44%
    12:00 +16°C° 0 mm 3 mps 729 mmHg 39%
    13:00 +17°C° 0 mm 3 mps 728 mmHg 34%
    14:00 +17°C° 0 mm 3 mps 728 mmHg 31%
    15:00 +18°C° 0 mm 3 mps 728 mmHg 28%
    16:00 +18°C° 0 mm 3 mps 727 mmHg 24%
    17:00 +17°C° 0 mm 3 mps 727 mmHg 24%
    18:00 +17°C° 0 mm 2 mps 728 mmHg 23%
    19:00 +16°C° 0 mm 2 mps 728 mmHg 22%
    20:00 +16°C° 0 mm 2 mps 728 mmHg 23%
    21:00 +15°C° 0 mm 2 mps 729 mmHg 24%
    22:00 +15°C° 0 mm 2 mps 729 mmHg 24%
    23:00 +13°C° 0 mm 3 mps 729 mmHg 29%

    28 February, Thursday

    Time Temperature Precipitation Wind Pressure Humidity
    00:00 +12°C° 0 mm 4 mps 729 mmHg 33%
    01:00 +12°C° 0 mm 4 mps 728 mmHg 37%
    02:00 +11°C° 0 mm 4 mps 728 mmHg 40%
    03:00 +11°C° 0 mm 4 mps 728 mmHg 43%
    04:00 +10°C° 0 mm 4 mps 728 mmHg 46%
    05:00 +10°C° 0 mm 4 mps 729 mmHg 48%
    06:00 +10°C° 0 mm 4 mps 729 mmHg 50%
    07:00 +10°C° 0 mm 4 mps 729 mmHg 52%
    08:00 +11°C° 0 mm 4 mps 730 mmHg 47%
    09:00 +13°C° 0 mm 5 mps 730 mmHg 42%
    10:00 +14°C° 0 mm 5 mps 730 mmHg 37%
    11:00 +15°C° 0 mm 4 mps 730 mmHg 33%
    12:00 +17°C° 0 mm 4 mps 729 mmHg 29%
    13:00 +18°C° 0 mm 4 mps 729 mmHg 25%
    14:00 +19°C° 0 mm 4 mps 728 mmHg 24%
    15:00 +19°C° 0 mm 4 mps 728 mmHg 22%
    16:00 +19°C° 0 mm 4 mps 727 mmHg 21%
    17:00 +19°C° 0 mm 4 mps 728 mmHg 21%
    18:00 +18°C° 0 mm 4 mps 728 mmHg 22%
    19:00 +18°C° 0 mm 4 mps 728 mmHg 23%
    20:00 +17°C° 0 mm 4 mps 728 mmHg 24%
    21:00 +15°C° 0 mm 4 mps 728 mmHg 26%
    22:00 +14°C° 0 mm 4 mps 728 mmHg 27%
    23:00 +14°C° 0 mm 4 mps 728 mmHg 29%
    Show more